AirNav   Pilot Hours Calculator
 
 914 users online  

FD44 Eagles Nest Aerodrome
Crescent City, Florida, USA

GOING TO CRESCENT CITY?


FAA INFORMATION EFFECTIVE 15 JULY 2021

Location

FAA Identifier: FD44
Lat/Long: 29-25-37.0000N 081-36-15.0000W
29-25.616667N 081-36.250000W
29.4269444,-81.6041667
(estimated)
Elevation: 63 ft. / 19 m (estimated)
Variation: 03W (1985)
From city: 5 miles W of CRESCENT CITY, FL
Time zone: UTC -4 (UTC -5 during Standard Time)
Zip code: 32112

Airport Operations

Airport use: Private use. Permission required prior to landing
Activation date: 11/1985
Control tower: no
ARTCC: JACKSONVILLE CENTER
FSS: GAINESVILLE FLIGHT SERVICE STATION
Attendance: UNATNDD
Wind indicator: yes
Segmented circle: no

Airport Communications

WX AWOS-3 at 28J (15 nm N): 119.925 (386-312-2212)

Nearby radio navigation aids

VOR radial/distance  VOR name  Freq  Var
OMNr286/26.7ORMOND BEACH VORTAC112.6000E
SGJr210/34.8ST AUGUSTINE VOR/DME109.4006W
OCFr065/35.8OCALA VORTAC113.7000E
GNVr119/38.4GATORS VORTAC116.2004W

 
NDB name  Hdg/Dist  Freq  Var  ID
REYNOLDS182/32.533807WRYD .-. -.-- -..

Airport Services

Runway Information

Runway 18/36

Dimensions: 3200 x 100 ft. / 975 x 30 m
Surface: turf
Runway edge lights: low intensity
RUNWAY 18  RUNWAY 36
Traffic pattern: leftleft
Displaced threshold: 600 ft.no

Runway 18W/36W

Dimensions: 3300 x 125 ft. / 1006 x 38 m
Surface: water
RUNWAY 18W  RUNWAY 36W
Elevation: 43.0 ft.43.0 ft.
Traffic pattern: leftleft

Airport Ownership and Management from official FAA records

Ownership: Privately-owned
Owner: EAGLES NEST HOA
521 GEORGETOWN SHORTCUT ROAD
CRESCENT CITY, FL 32112
Phone (386) 467-3011
Manager: RICK TOLLER, PRESIDENT
521 GEORGETOWN SHORTCUT ROAD
CRESCENT CITY, FL 32112
Phone (386) 467-3011

Airport Operational Statistics

Aircraft based on the field: 22
Single engine airplanes: 20
Multi engine airplanes: 2
    

Additional Remarks

SEAPLANE BASE IS IN LAKE THAT IS LOCATED WEST OF THE TURF RY.
FOR CD CTC JACKSONVILLE APCH AT 904-741-0284.

Instrument Procedures

There are no published instrument procedures at FD44.

Some nearby airports with instrument procedures:

28J - Palatka Municipal Airport - Lt. Kay Larkin Field (15 nm N)
KFIN - Flagler Executive Airport (21 nm E)
KOMN - Ormond Beach Municipal Airport (27 nm E)
KDED - DeLand Municipal Airport-Sidney H Taylor Field (27 nm SE)
X23 - Umatilla Municipal Airport (30 nm S)
 
Loc | Ops | Rwys | IFR | FBO | Links
Com | Nav | Svcs | Stats | Notes
Area around FD44 (Eagles Nest Aerodrome)
 
Road maps at: MapQuest Bing Google
 
Aerial photo
WARNING: Photo may not be current or correct
Aerial photo of FD44 (Eagles Nest Aerodrome)
Do you have a better or more recent aerial photo of Eagles Nest Aerodrome that you would like to share? If so, please send us your photo.

 
Sectional chart

 
Airport distance calculator
Flying to Eagles Nest Aerodrome? Find the distance to fly.

From to FD44

Sunrise and sunset
Times for 24-Jul-2021
 Local
(UTC-4)
 Zulu
(UTC)
Morning civil twilight06:1710:17
Sunrise06:4310:43
Sunset20:2300:23
Evening civil twilight20:4900:49

Current date and time
Zulu (UTC)  24-Jul-2021 12:27:19
Local (UTC-4)  24-Jul-2021 08:27:19
 
METAR
K28J 
15nm N 
241215Z AUTO 00000KT 1/4SM FG OVC002 22/22 A3002 RMK AO2
KFIN 
21nm E 
241150Z 00000KT 10SM CLR A3000 RMK WX ESTIMATED
KOMN 
27nm E 
241150Z 00000KT 7SM SCT020 23/23 A3000
KDED 
27nm SE 
241210Z AUTO 36004KT 10SM OVC002 24/24 A3002 RMK AO2 T02440242
TAF
KDAB 
32nm SE 
241133Z 2412/2512 01011KT P6SM SCT015 SCT035 FM241700 03016G23KT P6SM VCSH SCT040 SCT070 SCT250 FM250200 04010KT P6SM VCSH SCT050 BKN250
KSGJ 
36nm NE 
241120Z 2412/2512 02008KT P6SM SCT015 SCT025 FM241500 03015G25KT P6SM VCSH SCT025 BKN060 FM250000 06015KT P6SM SCT025 OVC040
KLEE 
38nm S 
241137Z 2412/2512 01005KT 3SM BR OVC002 TEMPO 2412/2413 1SM BR OVC002 FM241300 03007KT P6SM VCSH SCT035 SCT250 FM241800 05012KT P6SM VCSH SCT040 BKN080 BKN250 FM250100 04005KT P6SM SCT050 BKN250
KGNV 
39nm NW 
241120Z 2412/2512 02004KT 1SM BR OVC002 FM241400 02006KT P6SM SCT005 SCT015 FM241500 04010G20KT P6SM SCT025 BKN250 FM250100 03007KT P6SM SCT025 BKN250
NOTAMs
Click for the latest NOTAMs
NOTAMs are issued by the DoD/FAA and will open in a separate window not controlled by AirNav.

 

 
 

Would you like to see your business listed on this page?

 If your business provides an interesting product or service to pilots, flight crews, aircraft, or users of the Eagles Nest Aerodrome, you should consider listing it here.  To start the listing process, click on the button below
 
Add a business
 

Other Pages about Eagles Nest Aerodrome

Update a link
 
Copyright © AirNav, LLC. All rights reserved. Privacy Policy  Contact